Date String (YYYY-MM-DD hh:mm:ss) UTC,Instrument flags,absolute air pressure of the measurement (hPa),sample flow rate (lpm),inlet stack bypass flow (lpm),air temperature of the measurement (°C),ambient temperature measured by the external sensor (°C),aerosol sample conditioner tube jacket temperature (°C),OPC LED temperature (°C),internal box temperature (°C),relative humidity of the measurement (%),span deviation,mass concentration of particles derived from Lorenz-Mie calculation of OPC scattering (μg/m³),mass concentration of particles derived from Lorenz-Mie calculation of OPC scattering (μg/m³),mass concentration of particles derived from Lorenz-Mie calculation of OPC scattering (μg/m³)
DateTimeUTC,F1_M11,P_M11,Q1_M11,Q2_M11,T1_M11,T2_M11,T3_M11,T4_M11,T5_M11,U1_M11,ZSPAN_M11,X0_M11,X2_M11,X1_M11
2023-08-24 04:00:00,SystemResetWarning,0833.5,5.00,000.00,027.5,026.0,000.0,035.9,029.3,29.6,0001.4,0013.24,0007.16,0006.18
2023-08-24 04:01:00,SystemResetWarning,0833.5,5.00,000.00,027.6,026.3,000.0,035.9,029.4,29.5,0001.7,0013.27,0007.18,0006.17
2023-08-24 04:02:00,SystemResetWarning,0833.5,5.00,000.00,027.6,026.5,000.0,035.9,029.5,29.3,0001.8,0013.38,0007.12,0006.14
2023-08-24 04:03:00,SystemResetWarning,0833.4,4.99,000.00,027.7,025.9,000.0,035.9,029.4,29.1,0001.1,0012.85,0007.07,0006.11
2023-08-24 04:04:00,SystemResetWarning,0833.4,5.00,000.00,027.6,024.2,000.0,035.8,029.0,29.1,0000.8,0013.36,0007.10,0006.10
2023-08-24 04:05:00,SystemResetWarning,0833.4,5.01,000.00,027.5,023.5,000.0,035.7,028.8,29.2,0001.0,0013.60,0007.14,0006.09
2023-08-24 04:06:00,SystemResetWarning,0833.4,5.00,000.00,027.4,023.7,000.0,035.7,028.8,29.5,0000.6,0015.15,0007.17,0006.09
2023-08-24 04:07:00,SystemResetWarning,0833.4,4.99,000.00,027.3,024.1,000.0,035.7,028.9,29.7,0000.5,0015.45,0007.19,0006.08
2023-08-24 04:08:00,SystemResetWarning,0833.4,5.00,000.00,027.3,024.6,000.0,035.8,028.9,29.5,0000.3,0015.78,0007.20,0006.09
2023-08-24 04:09:00,SystemResetWarning,0833.4,5.01,000.00,027.4,025.0,000.0,035.8,029.0,29.4,0000.2,0015.53,0007.17,0006.09
2023-08-24 04:10:00,SystemResetWarning,0833.4,4.99,000.00,027.4,025.4,000.0,035.8,029.1,29.1,0000.5,0015.02,0007.14,0006.10
2023-08-24 04:11:00,SystemResetWarning,0833.4,5.00,000.00,027.5,025.8,000.0,035.8,029.2,28.9,0000.9,0014.66,0007.12,0006.10
2023-08-24 04:12:00,SystemResetWarning,0833.4,5.00,000.00,027.5,026.1,000.0,035.9,029.3,28.8,0001.4,0014.36,0007.06,0006.08
2023-08-24 04:13:00,SystemResetWarning,0833.4,5.00,000.00,027.6,026.3,000.0,035.9,029.4,28.7,0001.2,0014.32,0007.09,0006.08
2023-08-24 04:14:00,SystemResetWarning,0833.5,5.00,000.00,027.6,026.5,000.0,035.9,029.5,28.7,0001.4,0015.08,0007.12,0006.11
2023-08-24 04:15:00,SystemResetWarning,0833.5,5.00,000.00,027.7,026.7,000.0,036.0,029.5,28.7,0001.6,0014.91,0007.10,0006.11
2023-08-24 04:16:00,SystemResetWarning,0833.5,4.99,000.00,027.7,025.8,000.0,035.9,029.4,28.7,0001.5,0015.11,0007.06,0006.11
2023-08-24 04:17:00,SystemResetWarning,0833.4,5.00,000.00,027.6,024.1,000.0,035.8,029.1,28.8,0001.6,0013.71,0006.99,0006.11
2023-08-24 04:18:00,SystemResetWarning,0833.4,5.02,000.00,027.5,023.6,000.0,035.7,028.9,29.0,0001.7,0013.42,0006.97,0006.12
2023-08-24 04:19:00,SystemResetWarning,0833.4,4.99,000.00,027.4,023.9,000.0,035.7,028.8,29.1,0001.8,0013.65,0006.98,0006.12
2023-08-24 04:20:00,SystemResetWarning,0833.5,4.99,000.00,027.4,024.3,000.0,035.8,028.9,29.1,0001.9,0013.73,0007.00,0006.12
2023-08-24 04:21:00,SystemResetWarning,0833.6,5.00,000.00,027.4,024.7,000.0,035.8,029.0,29.2,0002.0,0014.39,0007.02,0006.12
2023-08-24 04:22:00,SystemResetWarning,0833.6,5.01,000.00,027.4,025.1,000.0,035.8,029.1,29.3,0002.1,0014.67,0007.04,0006.13
2023-08-24 04:23:00,SystemResetWarning,0833.6,4.99,000.00,027.5,025.5,000.0,035.9,029.2,29.2,0001.9,0014.94,0007.04,0006.16
2023-08-24 04:24:00,SystemResetWarning,0833.5,5.00,000.00,027.5,025.8,000.0,035.9,029.3,29.2,0001.7,0014.95,0007.07,0006.17
2023-08-24 04:25:00,SystemResetWarning,0833.6,5.00,000.00,027.6,026.1,000.0,035.9,029.4,29.2,0001.5,0014.49,0007.12,0006.18
2023-08-24 04:26:00,SystemResetWarning,0833.6,5.00,000.00,027.6,026.4,000.0,035.9,029.5,29.1,0001.4,0015.09,0007.17,0006.20
2023-08-24 04:27:00,SystemResetWarning,0833.7,5.01,000.00,027.7,026.6,000.0,036.0,029.5,29.0,0001.4,0015.37,0007.21,0006.23
2023-08-24 04:28:00,SystemResetWarning,0833.7,5.00,000.00,027.7,026.1,000.0,035.9,029.5,28.8,0001.6,0015.67,0007.26,0006.25
2023-08-24 04:29:00,SystemResetWarning,0833.6,4.99,000.00,027.6,024.4,000.0,035.8,029.1,28.9,0001.5,0015.83,0007.34,0006.26
2023-08-24 04:30:00,SystemResetWarning,0833.6,5.01,000.00,027.5,023.6,000.0,035.7,028.9,29.1,0001.7,0015.42,0007.38,0006.27
2023-08-24 04:31:00,SystemResetWarning,0833.6,5.01,000.00,027.4,023.8,000.0,035.7,028.8,29.3,0001.9,0016.19,0007.40,0006.30
2023-08-24 04:32:00,SystemResetWarning,0833.7,5.00,000.00,027.4,024.1,000.0,035.8,028.9,29.4,0001.7,0017.30,0007.44,0006.31
2023-08-24 04:33:00,SystemResetWarning,0833.7,4.99,000.00,027.4,024.6,000.0,035.8,029.0,29.5,0001.3,0017.76,0007.47,0006.33
2023-08-24 04:34:00,SystemResetWarning,0833.7,5.01,000.00,027.4,025.0,000.0,035.8,029.1,29.5,0001.0,0017.66,0007.53,0006.33
2023-08-24 04:35:00,SystemResetWarning,0833.7,5.00,000.00,027.5,025.4,000.0,035.9,029.2,29.5,0000.8,0018.13,0007.56,0006.35
2023-08-24 04:36:00,SystemResetWarning,0833.7,5.00,000.00,027.5,025.8,000.0,035.9,029.3,29.5,0000.8,0018.79,0007.58,0006.34
2023-08-24 04:37:00,SystemResetWarning,0833.7,4.99,000.00,027.5,026.0,000.0,035.9,029.4,29.5,0000.5,0018.65,0007.53,0006.34
2023-08-24 04:38:00,SystemResetWarning,0833.7,5.00,000.00,027.6,026.3,000.0,035.9,029.4,29.6,0000.4,0018.36,0007.50,0006.33
2023-08-24 04:39:00,SystemResetWarning,0833.7,5.01,000.00,027.7,026.5,000.0,036.0,029.5,29.9,-000.0,0018.36,0007.53,0006.32
2023-08-24 04:40:00,SystemResetWarning,0833.7,5.00,000.00,027.7,026.7,000.0,036.0,029.6,30.0,0000.1,0018.54,0007.50,0006.30
2023-08-24 04:41:00,SystemResetWarning,0833.7,4.98,000.00,027.7,025.9,000.0,035.9,029.5,30.0,0000.1,0018.68,0007.50,0006.28
2023-08-24 04:42:00,SystemResetWarning,0833.7,5.00,000.00,027.7,024.2,000.0,035.8,029.1,30.2,-000.1,0018.23,0007.48,0006.26
2023-08-24 04:43:00,SystemResetWarning,0833.7,5.01,000.00,027.6,023.6,000.0,035.7,028.9,30.3,-000.1,0016.78,0007.48,0006.25
2023-08-24 04:44:00,SystemResetWarning,0833.7,5.01,000.00,027.5,023.9,000.0,035.8,028.9,30.5,0000.2,0016.17,0007.46,0006.23
2023-08-24 04:45:00,SystemResetWarning,0833.8,5.00,000.00,027.4,024.3,000.0,035.8,028.9,30.6,0000.2,0016.14,0007.45,0006.23
2023-08-24 04:46:00,SystemResetWarning,0833.8,5.00,000.00,027.4,024.8,000.0,035.8,029.0,30.6,0000.4,0015.62,0007.42,0006.22
2023-08-24 04:47:00,SystemResetWarning,0833.8,5.01,000.00,027.5,025.2,000.0,035.9,029.2,30.6,0000.3,0014.82,0007.33,0006.22
2023-08-24 04:48:00,SystemResetWarning,0833.8,5.00,000.00,027.5,025.5,000.0,035.9,029.3,30.6,0000.5,0014.09,0007.35,0006.21
2023-08-24 04:49:00,SystemResetWarning,0833.8,5.00,000.00,027.5,025.9,000.0,035.9,029.3,30.5,0000.8,0013.96,0007.37,0006.21
2023-08-24 04:50:00,SystemResetWarning,0833.8,5.00,000.00,027.6,026.1,000.0,035.9,029.4,30.4,0001.0,0013.88,0007.35,0006.21
2023-08-24 04:51:00,SystemResetWarning,0833.8,4.99,000.00,027.7,026.4,000.0,036.0,029.5,30.3,0001.0,0013.49,0007.34,0006.23
2023-08-24 04:52:00,SystemResetWarning,0833.8,4.99,000.00,027.7,026.6,000.0,036.0,029.5,30.2,0001.0,0013.69,0007.33,0006.27
2023-08-24 04:53:00,SystemResetWarning,0833.8,5.01,000.00,027.8,026.7,000.0,036.0,029.6,30.2,0001.1,0013.81,0007.38,0006.31
2023-08-24 04:54:00,SystemResetWarning,0833.7,4.99,000.00,027.8,025.6,000.0,036.0,029.4,30.2,0001.3,0013.56,0007.39,0006.33
2023-08-24 04:55:00,SystemResetWarning,0833.7,5.01,000.00,027.7,024.0,000.0,035.8,029.0,30.4,0001.3,0013.39,0007.39,0006.36
2023-08-24 04:56:00,SystemResetWarning,0833.7,5.00,000.00,027.6,023.7,000.0,035.8,028.9,30.6,0001.7,0013.53,0007.40,0006.40
2023-08-24 04:57:00,SystemResetWarning,0833.8,5.01,000.00,027.5,024.0,000.0,035.8,028.9,30.8,0001.5,0013.42,0007.38,0006.43
2023-08-24 04:58:00,SystemResetWarning,0833.7,5.00,000.00,027.5,024.4,000.0,035.9,029.0,30.8,0001.5,0014.23,0007.52,0006.49
2023-08-24 04:59:00,SystemResetWarning,0833.8,4.99,000.00,027.5,024.8,000.0,035.9,029.1,30.8,0001.7,0014.56,0007.54,0006.51
